Date,TemperatureHighF,TemperatureAvgF,TemperatureLowF,DewpointHighF,DewpointAvgF,DewpointLowF,HumidityHigh,HumidityAvg,HumidityLow,PressureMaxIn,PressureMinIn,WindSpeedMaxMPH,WindSpeedAvgMPH,GustSpeedMaxMPH,PrecipitationSumIn
2013-1-1,42,33,28,32,28,22,90,81,61,30.48,30.37,8,1,8,0.01
2013-1-2,44,34,30,30,26,25,83,73,56,30.37,30.22,11,2,11,0.00
2013-1-3,39,34,27,31,27,23,86,74,59,30.28,30.17,7,1,7,0.00
2013-1-4,46,40,37,42,35,26,88,81,62,30.37,30.20,6,0,6,0.00
2013-1-5,40,37,35,35,33,25,89,84,62,30.25,30.19,6,0,6,0.00
2013-1-6,46,41,36,42,37,29,89,86,74,30.28,30.10,11,0,11,0.05
2013-1-7,56,48,45,51,45,41,88,87,83,30.25,30.03,17,2,17,0.10
2013-1-8,54,51,46,50,47,41,88,86,80,30.24,29.93,17,2,17,0.00
2013-1-9,51,43,36,46,38,28,89,85,73,30.02,29.73,10,1,13,0.26
2013-1-10,41,37,34,37,31,24,89,80,65,30.14,30.01,6,0,6,0.11
2013-1-11,40,31,27,35,24,18,89,74,61,30.34,30.14,3,0,3,0.00
2013-1-12,30,27,24,24,20,18,81,76,69,30.45,30.33,5,0,5,0.00
2013-1-13,29,28,27,26,24,20,90,84,75,30.54,30.44,4,0,4,0.00
2013-1-14,36,31,27,31,28,24,90,87,79,30.61,30.54,5,0,5,0.00
2013-1-15,40,36,32,36,31,26,89,84,74,30.69,30.59,5,0,5,0.00
2013-1-16,35,34,33,32,30,27,89,85,76,30.69,30.52,5,0,5,0.00
2013-1-17,41,34,30,36,28,21,90,81,66,30.52,30.35,6,0,6,0.00
2013-1-18,32,30,28,25,22,20,78,71,66,30.37,30.32,3,0,3,0.00
2013-1-19,32,30,28,26,22,20,79,71,67,30.39,30.32,3,0,3,0.00
2013-1-20,32,30,29,28,22,20,84,72,67,30.40,30.28,4,0,4,0.00
2013-1-21,34,30,27,31,24,19,90,78,69,30.32,30.19,4,0,4,0.00
2013-1-22,39,31,27,34,26,20,90,81,72,30.20,29.98,5,0,5,0.01
2013-1-23,36,35,32,33,30,27,90,83,69,30.24,29.93,4,0,4,0.27
2013-1-24,43,37,35,30,26,24,69,64,60,30.26,30.15,4,0,4,0.25
2013-1-25,56,46,39,51,36,27,89,70,54,30.16,29.99,8,0,8,0.11
2013-1-26,47,42,39,42,37,27,89,85,59,30.13,29.98,12,0,12,0.15
2013-1-27,44,40,37,40,36,31,90,86,78,30.19,30.09,10,0,10,0.12
2013-1-28,46,42,38,42,39,32,90,87,78,30.26,30.12,11,0,11,0.04
2013-1-29,48,46,44,45,43,40,89,88,83,30.52,30.26,12,1,12,0.01
2013-1-30,51,47,43,47,43,37,89,87,70,30.51,30.47,12,1,12,0.05
2013-1-31,56,48,42,47,40,29,89,72,57,30.48,30.35,4,0,4,0.01
2013-2-1,55,46,38,47,41,29,89,82,65,30.38,30.27,10,0,10,0.00
2013-2-2,49,39,31,44,32,20,89,74,61,30.35,30.28,6,0,6,0.00
2013-2-3,48,44,36,45,37,24,89,79,60,30.36,30.25,4,0,4,0.00
2013-2-4,51,45,40,45,38,28,89,77,59,30.26,29.96,7,0,7,0.00
2013-2-5,52,46,43,47,42,39,89,87,77,30.09,29.95,13,1,13,0.45
2013-2-6,54,47,42,44,41,37,89,82,67,30.13,29.86,19,1,19,0.06
2013-2-7,49,42,37,41,37,29,89,84,66,30.17,29.96,10,1,10,0.07
2013-2-8,45,38,32,39,31,22,89,77,62,30.32,30.17,3,0,4,0.00
2013-2-9,46,41,35,41,36,30,89,84,70,30.33,30.29,5,0,5,0.05
2013-2-10,46,44,41,41,37,32,89,78,67,30.37,30.33,6,0,6,0.00
2013-2-11,49,44,41,42,40,37,89,83,72,30.42,30.34,9,0,9,0.00
2013-2-12,56,49,45,48,45,42,89,85,73,30.51,30.42,9,0,9,0.00
2013-2-13,54,49,46,48,44,42,88,83,68,30.54,30.46,8,0,8,0.00
2013-2-14,57,48,38,46,41,29,89,80,64,30.58,30.51,6,0,6,0.00
2013-2-15,61,48,40,48,41,29,89,80,59,30.51,30.22,6,0,6,0.00
2013-2-16,54,45,40,46,39,29,89,80,61,30.31,30.25,11,1,11,0.00
2013-2-17,50,42,37,39,35,32,89,78,52,30.33,30.12,7,0,7,0.00
2013-2-18,48,41,35,39,35,28,89,80,65,30.12,29.76,10,1,11,0.04
2013-2-19,54,43,37,41,37,31,89,81,55,30.02,29.70,11,1,11,0.01
2013-2-20,50,41,36,41,37,30,89,84,65,30.14,30.02,10,0,10,0.08
2013-2-21,45,42,36,41,38,29,89,86,75,30.24,30.13,12,1,12,0.05
2013-2-22,47,44,38,44,40,34,89,86,75,30.21,29.94,20,2,20,0.38
2013-2-23,50,41,36,40,36,32,89,82,58,30.48,30.12,10,1,10,0.04
2013-2-24,53,44,36,38,35,33,89,73,47,30.47,30.09,12,1,12,0.00
2013-2-25,51,43,35,41,38,31,89,81,58,30.42,30.06,17,1,17,0.20
2013-2-26,52,42,34,39,35,29,89,76,48,30.42,30.27,8,0,8,0.00
2013-2-27,53,48,43,45,41,38,88,78,64,30.33,30.24,11,1,11,0.00
2013-2-28,57,53,48,53,49,44,88,87,83,30.47,30.22,12,1,12,0.02
2013-3-1,64,55,50,52,50,45,88,82,66,30.47,30.34,9,0,9,0.00
2013-3-2,56,50,39,50,45,36,89,84,73,30.34,30.19,10,0,10,0.10
2013-3-3,51,41,32,39,33,23,89,72,50,30.35,30.26,7,0,7,0.01
2013-3-4,58,43,30,38,33,22,89,71,39,30.26,29.93,7,0,7,0.00
2013-3-5,50,44,38,44,39,34,89,84,75,29.93,29.65,10,0,10,0.38
2013-3-6,46,43,41,43,38,34,89,84,78,30.00,29.57,11,1,11,0.32
2013-3-7,56,45,34,42,37,27,89,76,47,30.08,30.00,6,0,6,0.00
2013-3-8,59,43,31,43,35,22,89,72,44,30.24,30.05,7,0,7,0.00
2013-3-9,62,46,32,43,36,23,89,69,37,30.51,30.24,6,0,6,0.00
2013-3-10,54,46,37,47,40,33,88,80,62,30.52,30.43,5,0,6,0.00
2013-3-11,59,50,42,51,45,34,88,82,72,30.45,30.26,5,0,5,0.00
2013-3-12,61,53,45,50,44,34,88,74,58,30.26,30.17,10,0,10,0.00
2013-3-13,66,55,45,52,48,42,88,78,59,30.25,30.10,6,0,9,0.00
2013-3-14,59,53,47,48,46,43,88,77,59,30.23,30.06,12,1,12,0.00
2013-3-15,65,56,49,51,48,45,88,77,54,30.25,30.18,8,0,8,0.00
2013-3-16,53,47,40,46,43,36,89,85,76,30.21,30.04,14,1,14,0.19
2013-3-17,50,42,36,40,36,33,89,79,62,30.34,30.20,9,1,9,0.02
2013-3-18,55,44,34,39,35,29,89,71,48,30.32,30.16,6,0,6,0.00
2013-3-19,47,43,39,43,38,33,88,82,61,30.16,29.68,5,0,5,0.74
2013-3-20,54,48,40,50,42,33,88,80,57,30.21,29.57,19,2,19,0.54
2013-3-21,50,42,37,41,36,34,89,81,57,30.35,30.21,15,1,15,0.11
2013-3-22,49,40,33,40,34,28,89,80,60,30.42,30.33,11,1,11,0.04
2013-3-23,50,41,34,37,32,21,89,73,33,30.42,30.29,8,0,8,0.00
2013-3-24,56,45,35,39,35,32,89,70,46,30.30,30.09,8,0,8,0.00
2013-3-25,60,49,38,43,37,33,85,67,45,30.11,29.92,9,1,9,0.00
2013-3-26,54,48,44,47,44,39,88,84,76,30.05,29.99,4,0,4,0.02
2013-3-27,66,52,41,52,43,31,89,74,49,30.02,29.92,9,0,9,0.01
2013-3-28,68,54,45,52,46,37,89,74,47,30.16,30.01,8,1,8,0.00
2013-3-29,69,57,48,53,49,42,88,76,52,30.23,30.14,6,0,6,0.00
2013-3-30,77,59,42,54,48,34,88,67,39,30.19,29.96,9,1,9,0.00
2013-3-31,76,60,48,56,50,44,88,70,45,30.03,29.92,12,1,12,0.00
2013-4-1,68,56,48,53,49,40,88,78,59,30.20,30.03,11,0,11,0.00
2013-4-2,69,56,49,52,48,45,88,76,47,30.24,30.13,7,0,7,0.00
2013-4-3,65,52,42,54,45,32,88,77,63,30.19,29.92,4,0,6,0.00
2013-4-4,63,57,53,56,51,48,88,82,69,29.93,29.71,17,1,17,0.19
2013-4-5,58,54,52,52,49,46,88,85,72,29.98,29.84,15,1,16,0.38
2013-4-6,56,51,47,50,46,41,88,83,66,30.03,29.71,14,1,15,0.68
2013-4-7,52,48,43,48,43,39,89,83,70,30.00,29.59,10,2,19,0.13
2013-4-8,58,47,38,48,40,32,89,77,61,30.32,30.00,10,1,10,0.01
2013-4-9,60,50,40,48,43,37,89,78,55,30.40,30.26,4,0,4,0.00
2013-4-10,60,53,46,53,46,40,88,77,60,30.37,30.16,14,1,14,0.13
2013-4-11,60,49,39,43,40,30,89,73,49,30.38,30.19,5,0,6,0.00
2013-4-12,55,47,37,45,40,33,88,77,58,30.20,29.90,13,1,13,0.02
2013-4-13,53,45,40,42,38,34,88,76,53,30.14,29.97,11,1,12,0.11
2013-4-14,52,44,40,44,39,36,88,84,68,30.13,29.97,8,0,8,0.13
2013-4-15,55,46,38,43,38,33,89,75,46,30.20,29.98,12,1,12,0.00
2013-4-16,60,48,37,43,39,31,88,73,47,30.41,30.20,12,1,12,0.00
2013-4-17,63,48,38,45,40,30,89,73,44,30.52,30.41,9,0,9,0.00
2013-4-18,65,53,46,48,44,41,87,72,50,30.51,30.35,8,0,8,0.01
2013-4-19,60,52,49,53,47,44,88,83,71,30.35,30.20,15,1,15,0.32
2013-4-20,63,52,46,47,45,42,88,75,54,30.37,30.28,11,1,11,0.01
2013-4-21,58,51,46,48,44,41,85,77,64,30.34,30.26,7,0,7,0.00
2013-4-22,66,53,41,43,38,29,88,60,26,30.44,30.33,17,1,17,0.00
2013-4-23,70,55,39,40,36,31,80,52,25,30.39,30.15,7,1,8,0.00
2013-4-24,76,59,40,38,35,28,78,44,18,30.26,30.01,14,1,14,0.00
2013-4-25,78,60,44,48,42,36,84,54,31,30.16,30.03,9,0,9,0.00
2013-4-26,81,62,45,50,44,36,88,56,23,30.26,30.16,7,0,7,0.00
2013-4-27,72,60,48,46,40,31,80,50,25,30.28,30.21,11,1,11,0.00
2013-4-28,69,58,52,50,46,39,83,66,37,30.30,30.13,10,1,10,0.00
2013-4-29,60,52,40,48,41,32,87,66,37,30.26,30.12,13,2,13,0.01
2013-4-30,60,47,36,38,35,33,88,66,38,30.47,30.26,6,0,6,0.00
2013-5-1,71,53,35,40,36,32,88,59,27,30.53,30.43,12,1,12,0.00
2013-5-2,80,63,45,44,38,34,69,42,19,30.45,30.24,9,1,9,0.00
2013-5-3,63,56,46,42,40,37,75,55,46,30.31,30.28,6,0,6,0.00
2013-5-4,58,58,58,40,40,40,50,50,50,30.30,30.30,0,0,2,0.00
2013-5-5,58,58,58,40,40,40,50,50,50,30.30,30.30,0,0,2,0.00
2013-5-6,58,58,58,40,40,40,50,50,50,30.30,30.30,0,0,2,0.00
2013-5-7,58,58,58,40,40,40,50,50,50,30.30,30.30,0,0,2,0.00
2013-5-8,58,58,58,40,40,40,50,50,50,30.30,30.30,0,0,2,0.00
2013-5-9,58,58,58,40,40,40,50,50,50,30.30,30.30,0,0,2,0.00
2013-5-10,58,58,58,40,40,40,50,50,50,30.30,30.30,0,0,2,0.00
2013-5-11,58,58,58,40,40,40,50,50,50,30.30,30.30,0,0,2,0.00
2013-5-12,58,58,58,40,40,40,50,50,50,30.30,30.30,0,0,2,0.00
2013-5-13,58,58,58,40,40,40,50,50,50,30.30,30.30,0,0,2,0.00
2013-5-14,58,58,58,40,40,40,50,50,50,30.30,30.30,0,0,2,0.00
2013-5-15,58,58,58,40,40,40,50,50,50,30.30,30.30,0,0,2,0.00
2013-5-16,58,58,58,40,40,40,50,50,50,30.30,30.30,0,0,2,0.00
2013-5-17,58,58,58,40,40,40,50,50,50,30.30,30.30,0,0,2,0.00
2013-5-18,58,58,58,40,40,40,50,50,50,30.30,30.30,0,0,2,0.00
2013-5-19,58,58,58,40,40,40,50,50,50,30.30,30.30,0,0,2,0.00
2013-5-20,58,58,58,40,40,40,50,50,50,30.30,30.30,0,0,2,0.00